QPF
0.00 0.00 0.00 0.00 0.00 0.00 0.00 0.00 0.00 0.00 0.00 0.00 0.00 0.01 0.01 0.02 0.02 0.01 0.01 0.01 0.01 0.01 0.02 0.02 0.02 0.02 0.01 0.01 0.01 0.02 0.02 0.03 0.04 0.08 0.10 0.10 0.08 0.05 0.03 0.04 0.03 0.02 0.01 0.02
0.00 0.00 0.00 0.00 0.00 0.00 0.00 0.00 0.00 0.00 0.00 0.00 0.01 0.01 0.01 0.01 0.01 0.01 0.01 0.01 0.01 0.01 0.02 0.02 0.02 0.02 0.01 0.01 0.01 0.02 0.02 0.03 0.05 0.06 0.07 0.07 0.05 0.04 0.04 0.04 0.03 0.02 0.01 0.01
0.00 0.01 0.01 0.01 0.00 0.01 0.00 0.00 0.00 0.00 0.00 0.00 0.01 0.01 0.01 0.02 0.02 0.02 0.02 0.02 0.01 0.02 0.02 0.02 0.02 0.01 0.02 0.01 0.01 0.01 0.02 0.03 0.04 0.04 0.05 0.04 0.03 0.02 0.02 0.02 0.02 0.02 0.02 0.02
0.01 0.02 0.02 0.01 0.01 0.01 0.01 0.00 0.00 0.00 0.00 0.00 0.01 0.01 0.02 0.02 0.02 0.02 0.03 0.03 0.02 0.03 0.02 0.02 0.02 0.01 0.01 0.02 0.02 0.02 0.02 0.02 0.02 0.02 0.02 0.02 0.02 0.01 0.01 0.01 0.01 0.01 0.01 0.02
0.01 0.02 0.01 0.01 0.01 0.01 0.02 0.02 0.01 0.00 0.01 0.01 0.01 0.01 0.02 0.02 0.02 0.03 0.04 0.04 0.03 0.02 0.02 0.02 0.02 0.02 0.01 0.02 0.02 0.02 0.02 0.02 0.02 0.02 0.02 0.03 0.03 0.02 0.02 0.02 0.02 0.02 0.03 0.03
0.00 0.01 0.01 0.01 0.02 0.02 0.03 0.03 0.02 0.01 0.01 0.01 0.01 0.02 0.02 0.02 0.03 0.03 0.04 0.04 0.03 0.02 0.02 0.02 0.03 0.02 0.02 0.03 0.03 0.03 0.03 0.03 0.03 0.03 0.04 0.04 0.04 0.04 0.04 0.04 0.04 0.05 0.06 0.06
0.00 0.00 0.01 0.01 0.01 0.01 0.03 0.03 0.04 0.03 0.01 0.01 0.01 0.01 0.02 0.03 0.03 0.03 0.03 0.03 0.02 0.02 0.02 0.02 0.04 0.05 0.05 0.04 0.04 0.04 0.05 0.06 0.06 0.05 0.06 0.06 0.06 0.06 0.05 0.05 0.06 0.06 0.06 0.06
0.00 0.00 0.00 0.00 0.00 0.01 0.02 0.04 0.04 0.03 0.02 0.01 0.02 0.02 0.02 0.03 0.03 0.02 0.02 0.02 0.02 0.02 0.02 0.02 0.02 0.04 0.05 0.05 0.06 0.06 0.05 0.05 0.06 0.06 0.07 0.06 0.06 0.06 0.05 0.05 0.04 0.04 0.03 0.02
0.00 0.00 0.00 0.00 0.00 0.01 0.01 0.04 0.05 0.05 0.04 0.02 0.02 0.02 0.02 0.02 0.02 0.01 0.01 0.01 0.01 0.01 0.01 0.01 0.02 0.02 0.03 0.04 0.05 0.05 0.04 0.04 0.04 0.04 0.04 0.04 0.04 0.05 0.05 0.03 0.02 0.02 0.02 0.01
0.00 0.00 0.00 0.00 0.01 0.01 0.01 0.03 0.06 0.07 0.06 0.03 0.02 0.02 0.02 0.02 0.01 0.01 0.01 0.01 0.01 0.00 0.01 0.01 0.02 0.02 0.02 0.04 0.06 0.06 0.05 0.04 0.03 0.03 0.04 0.05 0.05 0.05 0.05 0.04 0.03 0.02 0.02 0.02
0.01 0.00 0.00 0.00 0.00 0.01 0.01 0.03 0.06 0.07 0.05 0.02 0.01 0.01 0.01 0.01 0.01 0.01 0.01 0.01 0.01 0.01 0.00 0.00 0.01 0.01 0.02 0.03 0.07 0.08 0.07 0.06 0.04 0.03 0.03 0.04 0.04 0.04 0.03 0.03 0.03 0.03 0.03 0.03
0.01 0.01 0.01 0.01 0.01 0.01 0.01 0.03 0.05 0.05 0.04 0.02 0.01 0.01 0.01 0.01 0.01 0.01 0.01 0.01 0.01 0.01 0.01 0.00 0.00 0.01 0.01 0.01 0.02 0.04 0.04 0.03 0.03 0.03 0.03 0.03 0.03 0.03 0.03 0.03 0.04 0.04 0.04 0.04
0.02 0.01 0.01 0.01 0.02 0.01 0.00 0.01 0.02 0.03 0.03 0.02 0.01 0.01 0.01 0.01 0.02 0.02 0.02 0.01 0.00 0.00 0.00 0.01 0.01 0.01 0.01 0.01 0.01 0.01 0.02 0.02 0.03 0.03 0.03 0.03 0.03 0.04 0.04 0.04 0.04 0.04 0.03 0.04
0.01 0.01 0.01 0.01 0.02 0.01 0.01 0.01 0.01 0.01 0.02 0.02 0.02 0.01 0.02 0.02 0.02 0.02 0.02 0.01 0.01 0.00 0.00 0.01 0.01 0.01 0.01 0.01 0.01 0.01 0.01 0.01 0.02 0.03 0.04 0.04 0.03 0.03 0.03 0.04 0.04 0.03 0.02 0.02
0.01 0.01 0.01 0.01 0.01 0.02 0.01 0.01 0.01 0.01 0.01 0.02 0.03 0.03 0.02 0.02 0.03 0.02 0.02 0.02 0.02 0.02 0.01 0.01 0.01 0.01 0.01 0.01 0.01 0.01 0.01 0.01 0.02 0.03 0.04 0.05 0.05 0.04 0.04 0.04 0.05 0.05 0.04 0.03
0.01 0.01 0.02 0.02 0.02 0.02 0.01 0.01 0.01 0.01 0.02 0.03 0.03 0.03 0.02 0.03 0.03 0.02 0.02 0.02 0.02 0.02 0.01 0.01 0.01 0.01 0.01 0.01 0.01 0.01 0.01 0.01 0.01 0.03 0.04 0.05 0.06 0.06 0.05 0.04 0.05 0.05 0.06 0.06
0.02 0.02 0.02 0.02 0.02 0.02 0.02 0.02 0.02 0.02 0.02 0.02 0.02 0.02 0.02 0.02 0.02 0.01 0.01 0.01 0.01 0.01 0.00 0.00 0.01 0.01 0.01 0.01 0.01 0.02 0.02 0.01 0.01 0.01 0.02 0.05 0.08 0.07 0.05 0.04 0.03 0.04 0.04 0.05
0.02 0.03 0.02 0.02 0.02 0.02 0.02 0.02 0.02 0.02 0.02 0.02 0.02 0.01 0.01 0.01 0.01 0.01 0.01 0.00 0.00 0.00 0.00 0.01 0.01 0.01 0.01 0.02 0.02 0.02 0.02 0.01 0.01 0.02 0.04 0.07 0.09 0.08 0.06 0.04 0.04 0.03 0.03 0.05
0.02 0.02 0.02 0.02 0.02 0.02 0.02 0.02 0.02 0.02 0.02 0.02 0.02 0.02 0.02 0.01 0.01 0.01 0.01 0.01 0.01 0.01 0.01 0.01 0.01 0.01 0.01 0.01 0.01 0.01 0.02 0.02 0.01 0.02 0.05 0.07 0.12 0.08 0.04 0.04 0.04 0.04 0.03 0.03
0.01 0.01 0.02 0.02 0.02 0.01 0.01 0.01 0.02 0.02 0.02 0.03 0.03 0.03 0.03 0.02 0.02 0.02 0.02 0.01 0.02 0.01 0.01 0.01 0.01 0.01 0.01 0.01 0.01 0.01 0.02 0.02 0.02 0.03 0.06 0.08 0.10 0.11 0.07 0.05 0.05 0.04 0.04 0.03
0.02 0.02 0.02 0.03 0.02 0.01 0.01 0.01 0.01 0.02 0.02 0.03 0.02 0.03 0.05 0.05 0.05 0.04 0.03 0.03 0.03 0.03 0.03 0.01 0.01 0.02 0.02 0.01 0.01 0.01 0.01 0.02 0.02 0.03 0.06 0.07 0.08 0.10 0.09 0.07 0.05 0.05 0.05 0.05
0.01 0.01 0.02 0.03 0.02 0.01 0.01 0.01 0.01 0.01 0.02 0.03 0.03 0.02 0.03 0.04 0.07 0.06 0.03 0.03 0.04 0.06 0.07 0.03 0.02 0.02 0.02 0.02 0.01 0.01 0.01 0.02 0.02 0.03 0.04 0.06 0.06 0.06 0.06 0.06 0.05 0.05 0.05 0.07
0.02 0.02 0.02 0.02 0.02 0.01 0.01 0.02 0.02 0.03 0.03 0.04 0.04 0.03 0.02 0.03 0.05 0.07 0.04 0.03 0.05 0.07 0.09 0.08 0.05 0.03 0.02 0.02 0.02 0.01 0.02 0.02 0.03 0.03 0.03 0.04 0.04 0.05 0.06 0.06 0.05 0.05 0.05 0.06
0.02 0.02 0.01 0.01 0.01 0.01 0.01 0.02 0.04 0.04 0.02 0.02 0.02 0.02 0.01 0.01 0.02 0.02 0.02 0.01 0.02 0.04 0.04 0.03 0.03 0.02 0.01 0.01 0.02 0.03 0.03 0.02 0.03 0.03 0.03 0.03 0.03 0.03 0.03 0.04 0.05 0.05 0.05 0.05
0.02 0.01 0.01 0.00 0.00 0.00 0.01 0.02 0.02 0.02 0.01 0.01 0.01 0.01 0.01 0.02 0.02 0.01 0.01 0.01 0.01 0.01 0.01 0.01 0.01 0.01 0.01 0.02 0.02 0.03 0.03 0.02 0.03 0.02 0.02 0.02 0.02 0.02 0.02 0.03 0.03 0.03 0.03 0.04
0.01 0.01 0.01 0.01 0.01 0.01 0.01 0.01 0.01 0.01 0.01 0.01 0.01 0.01 0.01 0.01 0.01 0.01 0.00 0.01 0.01 0.01 0.01 0.01 0.02 0.02 0.01 0.01 0.02 0.02 0.02 0.02 0.02 0.02 0.02 0.02 0.02 0.02 0.03 0.02 0.02 0.02 0.03 0.03
0.01 0.01 0.01 0.01 0.01 0.00 0.00 0.00 0.01 0.01 0.01 0.01 0.01 0.01 0.01 0.01 0.01 0.01 0.01 0.01 0.01 0.02 0.02 0.01 0.02 0.02 0.02 0.01 0.01 0.02 0.02 0.02 0.02 0.01 0.01 0.01 0.01 0.01 0.02 0.02 0.02 0.02 0.02 0.02
MSLP
1012.01 1012.57 1013.18 1013.81 1014.42 1014.96 1015.36 1015.57 1015.57 1015.34 1014.94 1014.40 1013.82 1013.26 1012.81 1012.51 1012.37 1012.38 1012.52 1012.72 1012.93 1013.11 1013.22 1013.26 1013.23 1013.16 1013.08 1013.00 1012.96 1012.95 1012.97 1013.02 1013.07 1013.12 1013.16 1013.20 1013.24 1013.31 1013.41 1013.55 1013.73 1013.93 1014.13 1014.32
1012.94 1013.45 1013.92 1014.37 1014.77 1015.09 1015.31 1015.40 1015.35 1015.17 1014.88 1014.52 1014.13 1013.77 1013.47 1013.25 1013.14 1013.10 1013.13 1013.18 1013.23 1013.25 1013.22 1013.14 1013.03 1012.90 1012.76 1012.64 1012.53 1012.44 1012.37 1012.31 1012.25 1012.20 1012.16 1012.14 1012.15 1012.22 1012.34 1012.52 1012.75 1013.01 1013.28 1013.53
1013.92 1014.34 1014.68 1014.94 1015.13 1015.25 1015.31 1015.30 1015.23 1015.10 1014.92 1014.72 1014.52 1014.32 1014.16 1014.03 1013.93 1013.85 1013.77 1013.70 1013.60 1013.48 1013.33 1013.16 1012.98 1012.80 1012.62 1012.45 1012.29 1012.12 1011.96 1011.79 1011.62 1011.46 1011.33 1011.24 1011.22 1011.27 1011.41 1011.62 1011.89 1012.20 1012.52 1012.82
1014.83 1015.14 1015.33 1015.41 1015.42 1015.38 1015.31 1015.22 1015.14 1015.06 1014.99 1014.93 1014.88 1014.83 1014.78 1014.71 1014.62 1014.50 1014.35 1014.17 1013.96 1013.73 1013.50 1013.27 1013.05 1012.84 1012.64 1012.44 1012.23 1012.01 1011.76 1011.50 1011.24 1010.99 1010.77 1010.63 1010.56 1010.60 1010.74 1010.96 1011.25 1011.59 1011.93 1012.25
1015.54 1015.73 1015.77 1015.70 1015.56 1015.38 1015.22 1015.09 1015.01 1014.99 1015.01 1015.07 1015.15 1015.21 1015.24 1015.21 1015.13 1014.97 1014.76 1014.51 1014.22 1013.93 1013.65 1013.40 1013.17 1012.96 1012.77 1012.57 1012.35 1012.09 1011.80 1011.48 1011.15 1010.83 1010.56 1010.37 1010.27 1010.28 1010.40 1010.62 1010.90 1011.22 1011.55 1011.84
1015.96 1016.01 1015.92 1015.73 1015.48 1015.23 1015.01 1014.87 1014.81 1014.84 1014.95 1015.10 1015.27 1015.41 1015.49 1015.50 1015.41 1015.23 1014.98 1014.68 1014.36 1014.04 1013.75 1013.51 1013.30 1013.13 1012.97 1012.80 1012.60 1012.35 1012.05 1011.71 1011.34 1010.99 1010.69 1010.46 1010.34 1010.32 1010.41 1010.59 1010.83 1011.10 1011.35 1011.57
1016.01 1015.95 1015.77 1015.50 1015.20 1014.91 1014.69 1014.57 1014.55 1014.64 1014.81 1015.04 1015.26 1015.45 1015.57 1015.58 1015.48 1015.29 1015.01 1014.69 1014.36 1014.04 1013.78 1013.57 1013.42 1013.30 1013.20 1013.09 1012.93 1012.71 1012.44 1012.11 1011.76 1011.40 1011.09 1010.85 1010.70 1010.65 1010.69 1010.81 1010.97 1011.14 1011.29 1011.40
1015.71 1015.58 1015.35 1015.06 1014.76 1014.50 1014.32 1014.24 1014.29 1014.43 1014.66 1014.93 1015.19 1015.39 1015.51 1015.52 1015.41 1015.20 1014.91 1014.58 1014.26 1013.97 1013.74 1013.59 1013.49 1013.44 1013.41 1013.36 1013.27 1013.11 1012.89 1012.60 1012.28 1011.95 1011.65 1011.41 1011.24 1011.15 1011.12 1011.15 1011.21 1011.25 1011.26 1011.23
1015.14 1014.99 1014.77 1014.52 1014.27 1014.08 1013.98 1013.98 1014.09 1014.29 1014.56 1014.85 1015.12 1015.32 1015.42 1015.41 1015.28 1015.05 1014.76 1014.44 1014.13 1013.87 1013.68 1013.57 1013.54 1013.55 1013.58 1013.59 1013.56 1013.46 1013.30 1013.07 1012.80 1012.51 1012.23 1011.99 1011.80 1011.66 1011.56 1011.49 1011.42 1011.33 1011.19 1011.02
1014.42 1014.30 1014.15 1013.98 1013.84 1013.76 1013.76 1013.85 1014.04 1014.29 1014.58 1014.88 1015.13 1015.30 1015.38 1015.33 1015.18 1014.94 1014.64 1014.33 1014.03 1013.80 1013.64 1013.57 1013.56 1013.61 1013.68 1013.74 1013.76 1013.71 1013.60 1013.42 1013.20 1012.95 1012.70 1012.46 1012.24 1012.06 1011.88 1011.71 1011.52 1011.29 1011.02 1010.72
1013.69 1013.65 1013.60 1013.56 1013.55 1013.61 1013.72 1013.91 1014.16 1014.45 1014.75 1015.03 1015.26 1015.39 1015.43 1015.35 1015.17 1014.92 1014.61 1014.30 1014.02 1013.80 1013.66 1013.59 1013.60 1013.65 1013.73 1013.80 1013.83 1013.82 1013.74 1013.60 1013.41 1013.20 1012.96 1012.73 1012.49 1012.26 1012.01 1011.75 1011.46 1011.12 1010.74 1010.33
1013.05 1013.12 1013.20 1013.31 1013.45 1013.64 1013.87 1014.14 1014.44 1014.75 1015.05 1015.31 1015.49 1015.59 1015.58 1015.47 1015.27 1015.01 1014.70 1014.40 1014.12 1013.90 1013.74 1013.66 1013.65 1013.68 1013.73 1013.78 1013.80 1013.77 1013.70 1013.58 1013.42 1013.22 1013.00 1012.76 1012.51 1012.24 1011.95 1011.62 1011.25 1010.84 1010.39 1009.92
1012.56 1012.75 1012.97 1013.23 1013.50 1013.81 1014.14 1014.48 1014.82 1015.14 1015.42 1015.64 1015.78 1015.84 1015.79 1015.66 1015.45 1015.18 1014.88 1014.58 1014.30 1014.07 1013.90 1013.79 1013.72 1013.70 1013.70 1013.69 1013.67 1013.61 1013.53 1013.40 1013.24 1013.05 1012.84 1012.60 1012.35 1012.06 1011.73 1011.37 1010.96 1010.51 1010.03 1009.53
1012.23 1012.54 1012.88 1013.26 1013.65 1014.06 1014.46 1014.84 1015.19 1015.50 1015.76 1015.94 1016.05 1016.07 1016.00 1015.85 1015.64 1015.38 1015.10 1014.81 1014.54 1014.29 1014.09 1013.93 1013.81 1013.72 1013.64 1013.57 1013.48 1013.38 1013.26 1013.11 1012.94 1012.76 1012.55 1012.32 1012.07 1011.78 1011.45 1011.07 1010.65 1010.19 1009.71 1009.22
1012.02 1012.42 1012.86 1013.34 1013.82 1014.29 1014.73 1015.13 1015.49 1015.78 1016.00 1016.15 1016.22 1016.21 1016.13 1015.99 1015.80 1015.56 1015.29 1015.02 1014.76 1014.51 1014.28 1014.07 1013.89 1013.72 1013.57 1013.42 1013.26 1013.10 1012.94 1012.77 1012.59 1012.40 1012.20 1011.99 1011.74 1011.46 1011.14 1010.78 1010.37 1009.92 1009.46 1008.99
1011.87 1012.34 1012.86 1013.40 1013.93 1014.44 1014.90 1015.30 1015.64 1015.90 1016.09 1016.21 1016.25 1016.24 1016.16 1016.02 1015.85 1015.64 1015.41 1015.17 1014.91 1014.66 1014.41 1014.16 1013.93 1013.69 1013.47 1013.25 1013.03 1012.82 1012.61 1012.42 1012.23 1012.04 1011.85 1011.64 1011.41 1011.16 1010.86 1010.51 1010.13 1009.70 1009.25 1008.81
1011.75 1012.27 1012.83 1013.40 1013.96 1014.48 1014.93 1015.32 1015.63 1015.87 1016.03 1016.12 1016.14 1016.12 1016.04 1015.93 1015.78 1015.61 1015.41 1015.19 1014.95 1014.70 1014.44 1014.16 1013.89 1013.60 1013.32 1013.04 1012.77 1012.52 1012.28 1012.06 1011.86 1011.67 1011.49 1011.30 1011.09 1010.85 1010.57 1010.25 1009.89 1009.49 1009.05 1008.61
1011.64 1012.18 1012.76 1013.35 1013.91 1014.42 1014.86 1015.22 1015.51 1015.71 1015.84 1015.90 1015.91 1015.88 1015.81 1015.71 1015.58 1015.44 1015.26 1015.07 1014.85 1014.60 1014.33 1014.04 1013.74 1013.42 1013.10 1012.78 1012.48 1012.19 1011.93 1011.69 1011.48 1011.29 1011.11 1010.93 1010.74 1010.52 1010.26 1009.96 1009.61 1009.22 1008.80 1008.35
1011.54 1012.10 1012.68 1013.26 1013.81 1014.30 1014.72 1015.05 1015.29 1015.46 1015.56 1015.59 1015.58 1015.54 1015.47 1015.38 1015.26 1015.13 1014.97 1014.79 1014.58 1014.34 1014.08 1013.78 1013.46 1013.12 1012.78 1012.43 1012.11 1011.80 1011.52 1011.27 1011.05 1010.85 1010.67 1010.50 1010.31 1010.10 1009.86 1009.57 1009.24 1008.86 1008.44 1007.98
1011.50 1012.05 1012.63 1013.19 1013.71 1014.17 1014.54 1014.83 1015.04 1015.17 1015.23 1015.24 1015.20 1015.14 1015.05 1014.95 1014.84 1014.70 1014.55 1014.38 1014.17 1013.93 1013.66 1013.36 1013.04 1012.69 1012.34 1011.98 1011.64 1011.32 1011.03 1010.76 1010.53 1010.33 1010.14 1009.97 1009.79 1009.59 1009.36 1009.08 1008.77 1008.40 1007.98 1007.53
1011.54 1012.08 1012.63 1013.16 1013.63 1014.04 1014.37 1014.61 1014.77 1014.85 1014.87 1014.84 1014.77 1014.68 1014.57 1014.45 1014.32 1014.17 1014.01 1013.83 1013.62 1013.39 1013.12 1012.81 1012.49 1012.14 1011.78 1011.42 1011.07 1010.74 1010.44 1010.17 1009.93 1009.71 1009.52 1009.35 1009.17 1008.98 1008.77 1008.52 1008.23 1007.89 1007.49 1007.06
1011.67 1012.18 1012.68 1013.16 1013.58 1013.92 1014.18 1014.36 1014.46 1014.49 1014.46 1014.39 1014.28 1014.16 1014.02 1013.87 1013.72 1013.55 1013.38 1013.18 1012.97 1012.73 1012.45 1012.15 1011.83 1011.49 1011.13 1010.77 1010.42 1010.09 1009.77 1009.49 1009.25 1009.03 1008.84 1008.67 1008.51 1008.34 1008.16 1007.95 1007.70 1007.41 1007.06 1006.66
1011.88 1012.33 1012.77 1013.17 1013.51 1013.78 1013.96 1014.07 1014.10 1014.07 1013.99 1013.87 1013.72 1013.56 1013.39 1013.21 1013.04 1012.85 1012.66 1012.46 1012.24 1011.99 1011.72 1011.42 1011.10 1010.77 1010.42 1010.06 1009.72 1009.38 1009.08 1008.80 1008.55 1008.34 1008.16 1008.01 1007.87 1007.74 1007.61 1007.46 1007.28 1007.05 1006.78 1006.45
1012.12 1012.50 1012.86 1013.16 1013.40 1013.56 1013.66 1013.68 1013.64 1013.55 1013.41 1013.25 1013.07 1012.88 1012.69 1012.49 1012.30 1012.10 1011.90 1011.69 1011.46 1011.22 1010.95 1010.66 1010.35 1010.03 1009.69 1009.35 1009.02 1008.70 1008.40 1008.13 1007.90 1007.71 1007.56 1007.44 1007.35 1007.28 1007.21 1007.13 1007.03 1006.89 1006.71 1006.47
1012.34 1012.63 1012.87 1013.06 1013.18 1013.24 1013.24 1013.18 1013.07 1012.92 1012.74 1012.54 1012.34 1012.13 1011.93 1011.73 1011.53 1011.33 1011.13 1010.92 1010.69 1010.46 1010.20 1009.92 1009.63 1009.32 1009.01 1008.69 1008.37 1008.08 1007.81 1007.57 1007.37 1007.21 1007.10 1007.03 1007.00 1006.99 1007.00 1007.00 1006.99 1006.95 1006.86 1006.72
1012.47 1012.64 1012.76 1012.82 1012.83 1012.79 1012.69 1012.55 1012.38 1012.19 1011.98 1011.77 1011.56 1011.35 1011.15 1010.96 1010.77 1010.58 1010.39 1010.19 1009.97 1009.75 1009.50 1009.24 1008.97 1008.69 1008.39 1008.11 1007.83 1007.57 1007.34 1007.14 1006.99 1006.89 1006.83 1006.82 1006.86 1006.92 1007.00 1007.09 1007.16 1007.20 1007.20 1007.13
1012.43 1012.49 1012.49 1012.44 1012.34 1012.20 1012.03 1011.83 1011.61 1011.40 1011.18 1010.97 1010.77 1010.58 1010.40 1010.23 1010.06 1009.89 1009.71 1009.53 1009.33 1009.11 1008.89 1008.65 1008.40 1008.14 1007.88 1007.63 1007.40 1007.19 1007.01 1006.88 1006.79 1006.75 1006.76 1006.81 1006.91 1007.04 1007.19 1007.33 1007.47 1007.57 1007.62 1007.61
Thickness
5749 5757 5758 5758 5759 5758 5755 5750 5743 5750 5754 5768 5777 5781 5786 5790 5792 5792 5792 5791 5791 5790 5789 5788 5787 5784 5782 5780 5777 5774 5769 5766 5763 5761 5759 5756 5754 5752 5749 5748 5746 5743 5740 5738
5741 5749 5752 5750 5754 5756 5755 5754 5752 5753 5754 5770 5775 5778 5779 5782 5784 5784 5784 5786 5786 5785 5784 5783 5783 5781 5779 5777 5774 5770 5766 5763 5761 5757 5755 5752 5750 5748 5746 5744 5741 5739 5736 5734
5720 5733 5739 5730 5744 5748 5748 5751 5751 5746 5755 5764 5765 5768 5770 5773 5775 5776 5778 5779 5779 5779 5779 5779 5778 5777 5775 5773 5770 5766 5762 5760 5757 5754 5750 5748 5747 5744 5741 5739 5736 5734 5732 5731
5706 5717 5709 5728 5750 5751 5747 5748 5751 5753 5756 5758 5760 5764 5766 5768 5768 5768 5770 5771 5772 5773 5773 5773 5772 5771 5770 5768 5764 5760 5757 5754 5752 5749 5746 5743 5741 5739 5736 5734 5732 5730 5728 5727
5691 5695 5705 5726 5740 5741 5736 5735 5746 5747 5749 5751 5755 5757 5755 5761 5763 5762 5763 5764 5765 5766 5767 5766 5764 5764 5762 5759 5756 5753 5751 5748 5746 5744 5740 5737 5734 5732 5731 5729 5727 5725 5724 5722
5685 5689 5689 5716 5737 5743 5736 5722 5741 5742 5741 5742 5744 5733 5739 5752 5753 5754 5756 5757 5757 5758 5757 5756 5756 5755 5752 5749 5747 5745 5745 5743 5741 5738 5736 5732 5729 5727 5725 5723 5721 5719 5718 5716
5680 5683 5694 5717 5728 5733 5712 5716 5734 5735 5735 5735 5733 5735 5741 5745 5745 5745 5746 5747 5748 5748 5746 5745 5746 5744 5740 5738 5737 5738 5737 5736 5734 5732 5730 5728 5724 5720 5717 5715 5713 5711 5710 5710
5670 5674 5685 5714 5716 5711 5713 5724 5726 5728 5729 5730 5730 5731 5733 5734 5734 5735 5735 5736 5737 5736 5734 5734 5735 5733 5729 5728 5729 5729 5727 5726 5725 5723 5722 5721 5717 5714 5711 5708 5705 5703 5702 5702
5676 5682 5697 5704 5707 5713 5714 5714 5717 5719 5722 5723 5721 5721 5722 5722 5723 5723 5724 5724 5725 5724 5723 5723 5723 5722 5719 5719 5719 5718 5717 5715 5713 5713 5712 5711 5708 5706 5703 5701 5698 5696 5694 5693
5671 5682 5691 5697 5702 5705 5707 5709 5712 5714 5714 5715 5712 5712 5711 5711 5711 5712 5712 5712 5712 5712 5711 5710 5711 5710 5710 5710 5709 5708 5705 5704 5703 5702 5701 5701 5700 5699 5696 5692 5691 5689 5687 5686
5664 5674 5681 5688 5692 5696 5699 5702 5703 5704 5705 5705 5704 5702 5701 5700 5700 5700 5701 5701 5701 5700 5699 5699 5699 5699 5699 5699 5698 5696 5695 5693 5693 5692 5691 5690 5689 5688 5688 5687 5685 5682 5681 5679
5660 5669 5669 5676 5685 5688 5689 5691 5693 5694 5694 5695 5696 5693 5692 5689 5689 5689 5690 5690 5689 5688 5688 5688 5688 5688 5689 5688 5687 5686 5684 5683 5682 5681 5680 5680 5679 5678 5678 5677 5676 5675 5674 5672
5665 5668 5668 5672 5676 5680 5681 5683 5685 5685 5685 5684 5685 5684 5682 5679 5679 5679 5679 5679 5678 5677 5677 5677 5677 5677 5678 5678 5677 5675 5673 5672 5671 5671 5670 5670 5669 5669 5668 5668 5667 5666 5665 5663
5659 5660 5660 5664 5667 5671 5673 5675 5676 5675 5675 5675 5674 5673 5672 5670 5669 5668 5668 5668 5668 5667 5666 5666 5666 5666 5667 5667 5666 5665 5664 5663 5662 5661 5661 5661 5660 5660 5659 5658 5658 5658 5656 5654
5654 5656 5656 5659 5660 5661 5663 5664 5663 5662 5663 5663 5663 5662 5662 5660 5659 5658 5659 5659 5658 5657 5655 5655 5655 5656 5657 5657 5656 5656 5655 5654 5654 5653 5653 5652 5652 5651 5650 5649 5649 5648 5647 5646
5648 5649 5651 5651 5652 5652 5653 5653 5651 5651 5652 5652 5651 5651 5651 5651 5650 5649 5648 5648 5647 5646 5646 5645 5645 5647 5647 5647 5646 5646 5646 5647 5646 5645 5644 5644 5643 5642 5641 5641 5640 5639 5639 5637
5639 5640 5641 5642 5643 5644 5644 5644 5643 5643 5642 5642 5642 5642 5641 5641 5639 5638 5638 5638 5638 5638 5638 5637 5638 5639 5639 5638 5637 5637 5637 5638 5638 5637 5637 5636 5635 5634 5633 5632 5632 5631 5631 5630
5638 5639 5639 5638 5637 5636 5636 5636 5636 5635 5634 5634 5634 5633 5631 5630 5629 5628 5628 5628 5629 5629 5629 5630 5630 5630 5630 5629 5629 5629 5629 5629 5629 5628 5628 5627 5627 5626 5624 5623 5623 5622 5622 5621
5633 5633 5632 5632 5631 5629 5628 5627 5628 5628 5628 5627 5625 5624 5623 5622 5621 5620 5620 5619 5619 5619 5621 5622 5622 5622 5621 5621 5621 5621 5621 5621 5620 5619 5618 5617 5617 5617 5616 5615 5615 5615 5614 5613
5627 5627 5626 5625 5624 5623 5621 5621 5621 5620 5620 5619 5618 5616 5615 5614 5614 5613 5612 5612 5612 5614 5614 5614 5614 5613 5614 5613 5613 5613 5613 5613 5612 5610 5609 5608 5608 5608 5608 5607 5607 5606 5605 5605
5618 5618 5618 5617 5616 5616 5615 5615 5613 5613 5612 5612 5610 5609 5607 5606 5606 5605 5605 5605 5607 5607 5606 5606 5605 5605 5606 5605 5605 5605 5605 5604 5603 5601 5600 5599 5598 5598 5597 5597 5597 5596 5596 5596
5609 5609 5609 5608 5607 5607 5607 5607 5607 5606 5605 5604 5603 5602 5600 5599 5599 5597 5597 5597 5599 5599 5598 5598 5598 5598 5598 5597 5597 5596 5596 5595 5593 5592 5591 5590 5589 5588 5587 5587 5587 5587 5586 5585
5602 5601 5601 5600 5599 5598 5599 5599 5599 5598 5598 5597 5596 5595 5594 5593 5592 5590 5590 5591 5591 5591 5590 5590 5590 5590 5589 5589 5589 5588 5587 5586 5585 5584 5582 5581 5579 5578 5578 5578 5578 5577 5576 5575
5594 5594 5593 5593 5592 5592 5591 5591 5591 5591 5590 5590 5589 5589 5587 5586 5585 5585 5584 5584 5584 5584 5583 5582 5582 5582 5581 5581 5581 5580 5579 5578 5577 5575 5574 5572 5571 5570 5569 5568 5567 5566 5565 5564
5588 5587 5587 5587 5586 5585 5585 5584 5584 5583 5582 5582 5582 5582 5581 5580 5579 5579 5578 5578 5577 5576 5576 5575 5574 5574 5573 5573 5572 5571 5570 5569 5568 5567 5566 5564 5563 5561 5560 5559 5558 5556 5555 5554
5582 5582 5582 5581 5580 5579 5579 5578 5577 5576 5576 5576 5575 5575 5575 5574 5573 5572 5571 5571 5570 5569 5568 5568 5567 5567 5566 5565 5564 5564 5562 5561 5560 5559 5558 5556 5555 5553 5551 5550 5549 5547 5546 5545
5577 5577 5576 5576 5576 5575 5574 5574 5573 5572 5571 5570 5569 5569 5568 5567 5566 5566 5565 5564 5563 5562 5562 5561 5560 5559 5558 5558 5557 5556 5555 5554 5553 5552 5550 5548 5547 5545 5544 5542 5540 5539 5538 5537